CFG4RV LEPA-LFMN

Flight info

Callsign CFG4RV
Flight time 0h 59m
Altitude 36000
Route MEROS N853 CHELY/N0431F300 N853 LUMAS DCT SOFFY DCT MRM DCT ABLAK
Aircraft A319/M-SDE3FGHIRWY/LB1

Departure

Time 2026-05-04 14:28
Airport Palma de Mallorca Airport (LEPA)

Arrival

Time 2026-05-04 15:27
Airport Nice-Côte d'Azur Airport (LFMN)
Time Latitude Longitude Altitude Speed Heading
2026-05-04 14:07 39.54798 2.73607 63 ft 0 kts 59°
2026-05-04 14:18 39.54786 2.73579 35 ft 3 kts 65°
2026-05-04 14:19 39.54776 2.73530 35 ft 3 kts 115°
2026-05-04 14:19 39.54782 2.73519 32 ft 0 kts 147°
2026-05-04 14:21 39.54777 2.73523 35 ft 4 kts 147°
2026-05-04 14:21 39.54720 2.73570 36 ft 13 kts 147°
2026-05-04 14:21 39.54635 2.73630 36 ft 14 kts 171°
2026-05-04 14:22 39.54601 2.73722 35 ft 18 kts 62°
2026-05-04 14:22 39.54668 2.73871 36 ft 20 kts 59°
2026-05-04 14:22 39.54742 2.74036 34 ft 23 kts 59°
2026-05-04 14:22 39.54863 2.74097 36 ft 22 kts 329°
2026-05-04 14:23 39.55133 2.73883 35 ft 24 kts 329°
2026-05-04 14:23 39.55278 2.73768 36 ft 21 kts 328°
2026-05-04 14:23 39.55410 2.73663 35 ft 24 kts 328°
2026-05-04 14:24 39.55562 2.73542 29 ft 28 kts 329°
2026-05-04 14:24 39.55679 2.73550 27 ft 19 kts 61°
2026-05-04 14:24 39.55757 2.73715 27 ft 24 kts 58°
2026-05-04 14:24 39.55851 2.73913 26 ft 27 kts 59°
2026-05-04 14:25 39.55957 2.74135 21 ft 30 kts 59°
2026-05-04 14:25 39.56127 2.74340 17 ft 2 kts 25°
2026-05-04 14:25 39.56128 2.74341 17 ft 0 kts 25°
2026-05-04 14:26 39.56157 2.74354 18 ft 14 kts 11°
2026-05-04 14:26 39.56226 2.74313 17 ft 9 kts 306°
2026-05-04 14:26 39.56218 2.74236 17 ft 9 kts 237°
2026-05-04 14:26 39.56216 2.74231 17 ft 0 kts 237°
2026-05-04 14:27 39.56213 2.74225 17 ft 3 kts 237°
2026-05-04 14:27 39.56075 2.73936 21 ft 82 kts 238°
2026-05-04 14:27 39.55640 2.73036 63 ft 145 kts 237°
2026-05-04 14:28 39.55096 2.71886 672 ft 151 kts 240°
2026-05-04 14:28 39.54586 2.70711 1499 ft 148 kts 240°
2026-05-04 14:28 39.54107 2.69550 2297 ft 144 kts 242°
2026-05-04 14:28 39.53644 2.68390 2865 ft 153 kts 242°
2026-05-04 14:29 39.52431 2.65807 3715 ft 188 kts 237°
2026-05-04 14:29 39.50904 2.62762 5054 ft 207 kts 236°
2026-05-04 14:30 39.50383 2.61723 5626 ft 209 kts 235°
2026-05-04 14:30 39.48800 2.60044 6274 ft 240 kts 207°
2026-05-04 14:30 39.45629 2.58040 7730 ft 260 kts 208°
2026-05-04 14:31 39.43988 2.57014 8664 ft 264 kts 204°
2026-05-04 14:31 39.40314 2.57694 10315 ft 296 kts 153°
2026-05-04 14:32 39.37288 2.61816 10878 ft 347 kts 136°
2026-05-04 14:32 39.35580 2.64072 11504 ft 354 kts 140°
2026-05-04 14:32 39.33828 2.66336 12226 ft 362 kts 133°
2026-05-04 14:32 39.32590 2.69215 12943 ft 375 kts 111°
2026-05-04 14:33 39.32209 2.72543 13667 ft 386 kts 89°
2026-05-04 14:33 39.32735 2.75766 14267 ft 394 kts 68°
2026-05-04 14:33 39.33900 2.78988 14902 ft 398 kts 64°
2026-05-04 14:33 39.35123 2.82229 15534 ft 403 kts 63°
2026-05-04 14:34 39.36354 2.85464 16133 ft 408 kts 63°
2026-05-04 14:34 39.37615 2.88777 16740 ft 413 kts 63°
2026-05-04 14:34 39.38885 2.92134 17353 ft 419 kts 63°
2026-05-04 14:34 39.40164 2.95536 17938 ft 424 kts 63°
2026-05-04 14:35 39.41459 2.98995 18495 ft 429 kts 63°
2026-05-04 14:35 39.42763 3.02491 19012 ft 434 kts 64°
2026-05-04 14:35 39.44059 3.05980 19522 ft 439 kts 64°
2026-05-04 14:35 39.45386 3.09558 20040 ft 444 kts 64°
2026-05-04 14:36 39.46733 3.13182 20559 ft 448 kts 64°
2026-05-04 14:36 39.48093 3.16838 21065 ft 453 kts 64°
2026-05-04 14:36 39.49440 3.20463 21556 ft 458 kts 64°
2026-05-04 14:36 39.50826 3.24199 22034 ft 463 kts 64°
2026-05-04 14:37 39.52206 3.27926 22496 ft 467 kts 65°
2026-05-04 14:37 39.53618 3.31745 22969 ft 472 kts 65°
2026-05-04 14:37 39.55034 3.35574 23429 ft 476 kts 65°
2026-05-04 14:37 39.56403 3.39280 23804 ft 479 kts 65°
2026-05-04 14:38 39.57846 3.43187 24188 ft 483 kts 65°
2026-05-04 14:38 39.59300 3.47128 24591 ft 486 kts 65°
2026-05-04 14:38 39.60760 3.51095 24978 ft 488 kts 65°
2026-05-04 14:38 39.62136 3.54848 25334 ft 491 kts 65°
2026-05-04 14:39 39.63606 3.58873 25711 ft 494 kts 66°
2026-05-04 14:39 39.65077 3.62907 26085 ft 497 kts 66°
2026-05-04 14:39 39.66547 3.66929 26469 ft 500 kts 66°
2026-05-04 14:40 39.69545 3.75122 27201 ft 505 kts 66°
2026-05-04 14:40 39.71061 3.79267 27558 ft 508 kts 66°
2026-05-04 14:40 39.72577 3.83422 27908 ft 511 kts 66°
2026-05-04 14:40 39.74046 3.87466 28241 ft 514 kts 66°
2026-05-04 14:41 39.75573 3.91688 28578 ft 516 kts 66°
2026-05-04 14:41 39.76567 3.94442 28793 ft 518 kts 66°
2026-05-04 14:41 39.79648 4.02983 29433 ft 523 kts 66°
2026-05-04 14:42 39.83405 4.12890 30113 ft 531 kts 57°
2026-05-04 14:42 39.85706 4.16684 30373 ft 533 kts 44°
2026-05-04 14:42 39.87559 4.18871 30608 ft 530 kts 36°
2026-05-04 14:43 39.90629 4.21466 31000 ft 524 kts 23°
2026-05-04 14:43 39.93967 4.23242 31395 ft 515 kts 11°
2026-05-04 14:43 39.97438 4.24236 31770 ft 509 kts
2026-05-04 14:43 40.00713 4.25011 32152 ft 507 kts
2026-05-04 14:44 40.04195 4.25832 32553 ft 506 kts
2026-05-04 14:44 40.07667 4.26647 32948 ft 505 kts
2026-05-04 14:44 40.11126 4.27458 33353 ft 504 kts
2026-05-04 14:44 40.14576 4.28267 33767 ft 503 kts
2026-05-04 14:45 40.18015 4.29076 34151 ft 502 kts
2026-05-04 14:45 40.21451 4.29885 34525 ft 500 kts
2026-05-04 14:45 40.24881 4.30694 34903 ft 499 kts
2026-05-04 14:45 40.28294 4.31504 35269 ft 497 kts
2026-05-04 14:46 40.31651 4.32303 35618 ft 496 kts
2026-05-04 14:46 40.35044 4.33111 35885 ft 495 kts
2026-05-04 14:46 40.41808 4.34719 35953 ft 493 kts
2026-05-04 14:47 40.48573 4.36331 35952 ft 493 kts
2026-05-04 14:47 40.55333 4.37942 35949 ft 493 kts
2026-05-04 14:48 40.62091 4.39552 35952 ft 494 kts
2026-05-04 14:48 40.68849 4.41171 35949 ft 494 kts
2026-05-04 14:49 40.75613 4.42794 35948 ft 494 kts
2026-05-04 14:49 40.82335 4.44414 35947 ft 494 kts
2026-05-04 14:50 40.89108 4.46049 35946 ft 494 kts
2026-05-04 14:50 40.95890 4.47681 35946 ft 495 kts
2026-05-04 14:51 41.02671 4.49311 35942 ft 495 kts
2026-05-04 14:51 41.09453 4.50951 35946 ft 495 kts
2026-05-04 14:52 41.16236 4.52597 35938 ft 496 kts
2026-05-04 14:52 41.22994 4.54250 35939 ft 497 kts
2026-05-04 14:53 41.29799 4.55924 35945 ft 497 kts
2026-05-04 14:53 41.36606 4.57605 35942 ft 497 kts
2026-05-04 14:54 41.43415 4.59288 35946 ft 498 kts
2026-05-04 14:54 41.50229 4.60964 35949 ft 498 kts
2026-05-04 14:55 41.57051 4.62639 35951 ft 498 kts
2026-05-04 14:55 41.63819 4.64305 35956 ft 498 kts
2026-05-04 14:56 41.70672 4.66007 35957 ft 498 kts
2026-05-04 14:56 41.77381 4.68258 35957 ft 502 kts 11°
2026-05-04 14:57 41.84091 4.70896 35966 ft 502 kts 11°
2026-05-04 14:57 41.90790 4.73516 35965 ft 501 kts 11°
2026-05-04 14:58 41.97487 4.76148 35957 ft 501 kts 11°
2026-05-04 14:58 42.04171 4.78780 35969 ft 500 kts 11°
2026-05-04 14:59 42.10814 4.81401 35971 ft 500 kts 11°
2026-05-04 15:00 42.20838 4.85378 35970 ft 500 kts 11°
2026-05-04 15:00 42.27507 4.88042 35972 ft 499 kts 11°
2026-05-04 15:01 42.37515 4.92028 35972 ft 499 kts 11°
2026-05-04 15:01 42.44135 4.94662 35978 ft 499 kts 11°
2026-05-04 15:02 42.50798 4.97328 35982 ft 499 kts 11°
2026-05-04 15:02 42.57454 4.99995 35985 ft 499 kts 11°
2026-05-04 15:03 42.64115 5.02682 35986 ft 499 kts 11°
2026-05-04 15:03 42.70766 5.05374 35987 ft 499 kts 11°
2026-05-04 15:04 42.74082 5.06717 35690 ft 497 kts 11°
2026-05-04 15:04 42.77399 5.08055 34968 ft 497 kts 11°
2026-05-04 15:04 42.80614 5.09346 34238 ft 499 kts 11°
2026-05-04 15:04 42.83952 5.10688 33407 ft 501 kts 11°
2026-05-04 15:05 42.87299 5.12044 32562 ft 502 kts 12°
2026-05-04 15:05 42.90462 5.13334 31765 ft 503 kts 12°
2026-05-04 15:05 42.93825 5.14707 30910 ft 505 kts 13°
2026-05-04 15:05 42.97196 5.16086 30083 ft 505 kts 13°
2026-05-04 15:06 43.00565 5.17462 29160 ft 505 kts 13°
2026-05-04 15:06 43.03904 5.18827 28503 ft 497 kts 13°
2026-05-04 15:06 43.07198 5.20170 27677 ft 489 kts 13°
2026-05-04 15:07 43.13141 5.24402 26118 ft 482 kts 40°
2026-05-04 15:07 43.15358 5.27811 25388 ft 478 kts 56°
2026-05-04 15:07 43.16863 5.31814 24673 ft 469 kts 72°
2026-05-04 15:07 43.17699 5.36097 23984 ft 462 kts 79°
2026-05-04 15:08 43.18424 5.40366 23240 ft 456 kts 78°
2026-05-04 15:08 43.19134 5.44516 22448 ft 450 kts 78°
2026-05-04 15:08 43.19848 5.48669 21665 ft 444 kts 78°
2026-05-04 15:08 43.20550 5.52767 20898 ft 439 kts 78°
2026-05-04 15:09 43.21242 5.56822 20156 ft 434 kts 79°
2026-05-04 15:09 43.21922 5.60811 19451 ft 426 kts 79°
2026-05-04 15:09 43.22591 5.64730 18839 ft 418 kts 79°
2026-05-04 15:10 43.23894 5.72398 17542 ft 408 kts 79°
2026-05-04 15:10 43.24528 5.76140 16865 ft 399 kts 79°
2026-05-04 15:10 43.25755 5.83389 15559 ft 381 kts 79°
2026-05-04 15:11 43.26339 5.86856 14937 ft 374 kts 79°
2026-05-04 15:11 43.26916 5.90297 14312 ft 366 kts 79°
2026-05-04 15:11 43.27478 5.93676 13697 ft 360 kts 80°
2026-05-04 15:11 43.28029 5.96991 13098 ft 351 kts 79°
2026-05-04 15:12 43.28548 6.00100 12674 ft 339 kts 80°
2026-05-04 15:12 43.29070 6.03223 12237 ft 329 kts 80°
2026-05-04 15:12 43.29574 6.06239 11805 ft 319 kts 79°
2026-05-04 15:12 43.30061 6.09165 11384 ft 312 kts 80°
2026-05-04 15:13 43.30539 6.12055 10970 ft 309 kts 81°
2026-05-04 15:13 43.31012 6.14942 10563 ft 310 kts 80°
2026-05-04 15:13 43.31487 6.17829 10168 ft 310 kts 80°
2026-05-04 15:13 43.31958 6.20680 10035 ft 303 kts 80°
2026-05-04 15:14 43.32419 6.23481 9922 ft 299 kts 80°
2026-05-04 15:14 43.32873 6.26247 9558 ft 296 kts 80°
2026-05-04 15:14 43.33318 6.28965 9211 ft 293 kts 81°
2026-05-04 15:14 43.33768 6.31712 8863 ft 290 kts 81°
2026-05-04 15:15 43.34201 6.34359 8529 ft 287 kts 81°
2026-05-04 15:15 43.34635 6.37014 8192 ft 284 kts 81°
2026-05-04 15:15 43.35065 6.39647 8049 ft 281 kts 81°
2026-05-04 15:16 43.36111 6.44841 8054 ft 282 kts 77°
2026-05-04 15:16 43.36684 6.47420 8054 ft 282 kts 76°
2026-05-04 15:16 43.37827 6.52536 7464 ft 278 kts 76°
2026-05-04 15:17 43.38381 6.55060 7172 ft 274 kts 77°
2026-05-04 15:17 43.39455 6.60037 7010 ft 271 kts 77°
2026-05-04 15:17 43.39991 6.62532 7009 ft 272 kts 77°
2026-05-04 15:18 43.40519 6.64994 7013 ft 272 kts 77°
2026-05-04 15:18 43.41062 6.67522 7001 ft 272 kts 77°
2026-05-04 15:18 43.41576 6.69916 6706 ft 269 kts 77°
2026-05-04 15:19 43.42615 6.74803 6109 ft 260 kts 77°
2026-05-04 15:19 43.43111 6.77134 5976 ft 249 kts 77°
2026-05-04 15:19 43.44055 6.81584 5489 ft 237 kts 76°
2026-05-04 15:20 43.44505 6.83712 5169 ft 234 kts 76°
2026-05-04 15:20 43.44959 6.85857 4997 ft 232 kts 76°
2026-05-04 15:20 43.45396 6.87933 4887 ft 230 kts 76°
2026-05-04 15:20 43.45841 6.90037 4392 ft 231 kts 75°
2026-05-04 15:21 43.46292 6.92160 4082 ft 229 kts 75°
2026-05-04 15:21 43.46737 6.94248 3999 ft 226 kts 75°
2026-05-04 15:21 43.48539 6.97650 4005 ft 222 kts 48°
2026-05-04 15:22 43.49639 6.99133 4005 ft 220 kts 48°
2026-05-04 15:22 43.50688 7.00558 3950 ft 213 kts 48°
2026-05-04 15:22 43.52723 7.03335 3487 ft 207 kts 48°
2026-05-04 15:23 43.53731 7.04713 3219 ft 199 kts 47°
2026-05-04 15:23 43.54682 7.06011 2980 ft 187 kts 48°
2026-05-04 15:23 43.55575 7.07231 2717 ft 175 kts 48°
2026-05-04 15:23 43.56416 7.08382 2490 ft 167 kts 48°
2026-05-04 15:24 43.58012 7.10568 2051 ft 155 kts 48°
2026-05-04 15:24 43.59522 7.12637 1643 ft 152 kts 48°
2026-05-04 15:25 43.60271 7.13663 1422 ft 152 kts 48°
2026-05-04 15:25 43.61017 7.14687 1222 ft 149 kts 48°
2026-05-04 15:25 43.61716 7.15642 1011 ft 139 kts 49°
2026-05-04 15:26 43.63090 7.17427 616 ft 131 kts 50°
2026-05-04 15:26 43.63710 7.18323 471 ft 131 kts 53°
2026-05-04 15:26 43.64981 7.20104 124 ft 127 kts 54°
2026-05-04 15:27 43.65588 7.20968 24 ft 114 kts 45°
2026-05-04 15:27 43.66293 7.21926 22 ft 40 kts 41°
2026-05-04 15:28 43.66550 7.22024 19 ft 12 kts 293°
2026-05-04 15:28 43.66521 7.21924 18 ft 12 kts 227°
2026-05-04 15:28 43.66409 7.21770 19 ft 13 kts 224°
2026-05-04 15:29 43.66331 7.21665 17 ft 17 kts 224°
2026-05-04 15:30 43.66236 7.21198 18 ft 17 kts 262°
2026-05-04 15:30 43.66321 7.20904 23 ft 13 kts 261°
2026-05-04 15:31 43.66205 7.20777 23 ft 15 kts 173°
2026-05-04 15:31 43.66143 7.20790 23 ft 0 kts 173°
2026-05-04 15:32 43.66120 7.20687 22 ft 1 kts 260°
2026-05-04 15:32 43.66119 7.20678 23 ft 0 kts 260°